User: anonymous   Login
Location: Unspecified
(0.0000°N, 0.0000°E)
Time: 05:02:26
(UTC+00:00)
Language:

NATO 4B - Orbit

View from above orbital plane
View from above orbital plane
View from above satellite
View from above satellite

Ground track
Ground track

The orbit data is extracted from the following two-line orbital elements,

1 22921U 93076A   18292.45580479 -.00000119 +00000-0 +00000-0 0  9997
2 22921 012.3510 018.4452 0004094 287.3845 084.5591 00.98518846091054
Epoch (UTC): 19 October 2018 10:56:21
Eccentricity: 0.0004094
inclination: 12.3510°
perigee height: 36267 km
apogee height: 36302 km
right ascension of ascending node: 18.4452°
argument of perigee: 287.3845°
revolutions per day: 0.98518846
mean anomaly at epoch: 84.5591°
orbit number at epoch: 9105

The dashed part of the orbit path shows where the satellite is in the earth's shadow,  

DLR